Regional Weather Roundup
Issued by NWS Green Bay, WI

Home | Current Version | Previous Version | Graphics & Text | Print | Product List | Glossary Off
Versions: 1 2 3 4 5 6 7 8 9 10 11 12 13 14 15 16 17 18 19 20 21 22 23 24 25 26 27 28 29 30 31 32 33 34 35 36 37 38 39 40 41 42 43 44 45 46 47 48 49 50

000
ASUS43 KGRB 050510
RWRGRB

NORTH-CENTRAL AND NORTHEAST WISCONSIN REGIONAL WEATHER ROUNDUP
NATIONAL WEATHER SERVICE GREEN BAY WI
1200 AM CDT TUE MAY 05 2015

WIZ005-009-010>012-018-019-050600-
NORTH CENTRAL WISCONSIN

CITY           SKY/WX    TMP DP  RH WIND       PRES   REMARKS
IRONWOOD       CLEAR     37  34  87 CALM      30.24R
MANITOWISH WTR CLEAR     36  33  88 CALM      30.25S
ARBOR VITAE    CLEAR     43  29  56 E3        30.26R
EAGLE RIVER    CLEAR     42  30  61 CALM      30.27R
LAND O LAKES   CLEAR     37  31  79 CALM      30.27S
RHINELANDER    CLEAR     47  32  56 E3        30.27R
PHILLIPS       CLEAR     42  23  47 CALM      30.24R
ANTIGO         CLEAR     49  37  65 E5        30.26R
TOMAHAWK       CLEAR     40  31  70 CALM      30.26S
MERRILL        CLEAR     48  40  74 E5        30.25R
$$

WIZ013-073-050600-
NORTHEAST WISCONSIN

CITY           SKY/WX    TMP DP  RH WIND       PRES   REMARKS
IRON MOUNTAIN  CLEAR     44  36  73 CALM      30.27R
MARINETTE      PTCLDY    46  34  61 E5        30.28R
OCONTO         MOCLDY    48  37  64 NE3       30.26S
$$

WIZ017-030-035>037-045-050600-
CENTRAL WISCONSIN

CITY           SKY/WX    TMP DP  RH WIND       PRES   REMARKS
MEDFORD        CLEAR     49  29  45 E6        30.24R
WAUSAU         PTCLDY    52  38  58 E9        30.23R
MOSINEE        PTCLDY    50  41  71 E7        30.25R
MARSHFIELD     PTCLDY    54  40  59 E8        30.22R
WISC RAPIDS    PTCLDY    54  40  59 E8        30.23R
STEVENS POINT  PTCLDY    51  38  61 E7        30.25R
WAUPACA        MOCLDY    55  39  53 CALM      30.24S
SHAWANO        PTCLDY    53  39  58 E8        30.27R
CLINTONVILLE   MOCLDY    50  37  62 NE5       30.25R
$$

WIZ038-039-048-051-050600-
FOX VALLEY

CITY           SKY/WX    TMP DP  RH WIND       PRES   REMARKS
NWS GREEN BAY  MOCLDY    51  36  56 E6        30.25R
APPLETON       CLOUDY    52  34  50 NE7       30.24R
OSHKOSH        CLOUDY    55  37  50 E8        30.22S
FOND DU LAC    CLOUDY    54  34  46 E5        30.22R
$$

WIZ022-050-052-050600-
EAST CENTRAL WISCONSIN

CITY           SKY/WX    TMP DP  RH WIND       PRES   REMARKS
STURGEON BAY   PTCLDY    48  30  49 E7        30.30R
MANITOWOC      MOCLDY    51  31  46 N5        30.24S
SHEBOYGAN      PTCLDY    46  35  65 NE8       30.22S
$$

LMZ563-521-522-541>543-050600-
LAKESHORE

STATION/POSITION TIME  TEMP    WIND        PRES    VSBY  WAVE
                       AIR SEA DIR/SP/G                  HT/PER
                 (UTC) (F)     (DEG/KT/KT) (MB)    (MI)  (FT/S)
SHEBOYGAN LKSHOR 0500   47      10/  9/ 10 1023.7S
KEWAUNEE LKSHORE 0500   47      40/  7/  8 1023.5R
NORTHPORT PIER   0500   46      CALM  /  1 1025.4R
SISTER BAY LKSHO 0400   45        CALM       N/A
CHAMBERS ISLAND  0500   48      70/  6/  9 1025.1S
MENOMINEE LKSHOR 0500           20/  5/  8   N/A
$$


USA.gov is the U.S. government's official web portal to all federal, state and local government web resources and services.